OK1TOM-6 Weather Reports


time (UTC)temp
F
wind
direction
speed
knots
gust
knots
rain 1hr
in
rain 24hr
in
rain mn
in
humidity
%
barometer
mb
20260507223548 44 90 0.0 0.0 0.00 0.25 0.00 98 1018.6
20260507222545 44 90 0.0 0.0 0.00 0.25 0.00 98 1018.5
20260507221541 44 90 0.0 0.0 0.00 0.25 0.00 97 1018.4
20260507220538 44 90 0.0 0.0 0.00 0.25 0.00 97 1018.4
20260507215534 44 90 0.0 0.0 0.00 0.25 0.25 97 1018.4
20260507214531 44 90 0.0 0.0 0.00 0.26 0.25 96 1018.4
20260507213527 44 90 0.0 0.0 0.00 0.28 0.25 96 1018.4
20260507212524 44 90 0.0 0.0 0.00 0.30 0.25 96 1018.4
20260507211520 43 90 0.0 0.0 0.00 0.32 0.25 95 1018.3
20260507210517 44 90 0.0 1.7 0.00 0.35 0.25 95 1018.3
20260507205614 44 90 0.0 0.0 0.00 0.38 0.25 96 1018.2
20260507204610 44 90 0.0 0.0 0.00 0.39 0.25 97 1018.2
20260507203607 44 90 0.0 1.7 0.00 0.39 0.25 96 1018.0
20260507202604 44 90 0.0 0.0 0.00 0.39 0.25 97 1018.0
20260507201600 44 90 0.0 0.0 0.00 0.39 0.25 97 1017.9
20260507200557 44 90 0.0 0.0 0.00 0.39 0.25 97 1017.9
20260507195553 44 90 0.0 0.0 0.00 0.39 0.25 97 1017.9
20260507194550 45 90 0.0 0.0 0.00 0.40 0.25 97 1017.8
20260507193546 45 90 0.0 0.0 0.00 0.41 0.25 97 1017.6
20260507192543 45 90 0.0 0.0 0.00 0.43 0.25 97 1017.6
20260507191539 45 90 0.0 0.0 0.01 0.43 0.25 97 1017.5
20260507190536 45 90 0.0 0.0 0.01 0.45 0.25 97 1017.3
20260507185533 45 90 0.0 0.0 0.01 0.45 0.25 97 1017.3
20260507184529 45 90 0.0 0.0 0.01 0.46 0.25 97 1017.1
20260507183526 46 90 0.0 0.0 0.01 0.47 0.25 97 1017.0
20260507182522 46 90 0.0 0.0 0.01 0.47 0.25 97 1016.8
20260507181519 46 146 0.0 1.7 0.01 0.46 0.24 97 1016.7
20260507180515 46 180 0.0 0.0 0.01 0.46 0.24 97 1016.7
20260507175612 46 68 0.0 1.7 0.01 0.46 0.24 97 1016.8
20260507174609 46 68 0.0 0.0 0.02 0.46 0.24 97 1016.7
20260507173606 46 113 0.0 0.0 0.07 0.46 0.24 97 1016.6
20260507172602 47 113 0.0 0.0 0.09 0.46 0.24 97 1016.4
20260507171559 46 113 0.0 0.0 0.09 0.45 0.22 97 1016.3
20260507170555 46 113 0.0 0.0 0.09 0.45 0.22 97 1016.3
20260507165552 46 113 0.0 1.7 0.09 0.45 0.22 96 1016.2
20260507164548 47 338 0.0 1.7 0.08 0.44 0.21 96 1016.2
20260507163545 47 68 0.0 1.7 0.05 0.39 0.17 95 1015.9
20260507162541 48 338 0.0 0.0 0.02 0.37 0.14 96 1016.0
20260507161539 48 338 0.0 1.7 0.02 0.35 0.13 95 1015.9
20260507160534 48 338 0.0 0.0 0.02 0.35 0.13 95 1015.9
20260507155531 48 338 0.0 1.7 0.02 0.35 0.13 95 1015.9
20260507154527 49 90 0.0 1.7 0.02 0.35 0.13 94 1015.7
20260507153524 49 113 0.0 1.7 0.01 0.34 0.12 94 1015.8
20260507152520 49 122 0.9 3.5 0.02 0.34 0.12 93 1015.6
20260507151517 49 158 0.0 1.7 0.01 0.33 0.11 92 1015.7
20260507150614 49 158 0.0 1.7 0.01 0.33 0.11 92 1015.6
20260507145610 49 150 0.9 1.7 0.02 0.33 0.11 92 1015.4
20260507144607 50 169 0.0 1.7 0.04 0.33 0.11 92 1015.3
20260507143604 50 158 0.9 3.5 0.04 0.33 0.11 91 1015.3
20260507142600 49 153 0.9 3.5 0.02 0.32 0.09 92 1015.3
20260507141557 50 149 0.9 3.5 0.02 0.32 0.09 92 1015.3
20260507140554 49 158 0.9 1.7 0.02 0.32 0.09 92 1015.3
20260507135550 50 173 0.9 3.5 0.01 0.31 0.08 91 1015.3
20260507134546 50 168 0.0 3.5 0.00 0.30 0.07 92 1015.2
20260507133543 50 135 0.0 1.7 0.00 0.30 0.07 91 1015.2
20260507132540 50 158 0.0 1.7 0.00 0.30 0.07 90 1015.0
20260507131536 50 135 0.0 1.7 0.00 0.30 0.07 87 1014.9
20260507130533 51 151 0.9 3.5 0.00 0.30 0.07 86 1014.8
20260507125529 52 167 0.9 3.5 0.00 0.30 0.07 86 1014.8
20260507124526 54 152 0.9 3.5 0.00 0.30 0.07 82 1014.7
20260507123523 54 338 0.9 3.5 0.02 0.30 0.07 82 1014.5
20260507122519 52 158 0.9 5.2 0.02 0.30 0.07 84 1014.5
20260507121516 53 249 0.9 5.2 0.02 0.30 0.07 84 1014.5
20260507120613 52 135 0.0 1.7 0.02 0.30 0.07 89 1014.5
20260507115609 51 150 0.9 3.5 0.02 0.30 0.07 90 1014.3
20260507114606 50 135 0.0 1.7 0.02 0.30 0.07 92 1014.3
20260507113603 52 158 1.7 6.1 0.00 0.27 0.05 86 1014.3
20260507112559 55 159 0.9 3.5 0.00 0.27 0.05 79 1014.2
20260507111556 54 145 1.7 6.1 0.00 0.27 0.05 78 1014.1
20260507110552 56 139 1.7 5.2 0.00 0.27 0.05 78 1013.8
20260507105549 54 152 1.7 5.2 0.00 0.27 0.05 80 1013.9
20260507104545 53 163 0.9 3.5 0.00 0.27 0.05 82 1014.0
20260507103542 52 167 0.9 3.5 0.00 0.27 0.05 84 1014.0
20260507102538 52 158 1.7 5.2 0.00 0.27 0.05 83 1013.9
20260507101535 53 150 0.9 1.7 0.00 0.27 0.05 85 1013.9
20260507100532 52 175 1.7 3.5 0.00 0.27 0.05 87 1013.9
20260507095528 51 169 1.7 3.5 0.00 0.27 0.05 88 1013.8
20260507094525 52 147 0.9 3.5 0.00 0.27 0.05 88 1013.7
20260507093522 52 135 0.9 3.5 0.00 0.27 0.05 87 1013.7
20260507092518 51 162 0.9 3.5 0.00 0.27 0.05 91 1013.6
20260507091615 51 156 0.9 3.5 0.00 0.27 0.05 90 1013.5
20260507090611 52 145 1.7 7.0 0.00 0.27 0.05 89 1013.4
20260507085608 51 152 1.7 3.5 0.00 0.27 0.05 90 1013.3
20260507084605 50 153 0.9 3.5 0.00 0.27 0.05 92 1013.2
20260507083601 50 158 0.9 5.2 0.00 0.27 0.05 93 1013.1
20260507082558 49 154 1.7 5.2 0.00 0.27 0.05 91 1013.0
20260507081554 50 144 0.9 3.5 0.00 0.27 0.05 90 1012.9
20260507080551 50 147 1.7 7.0 0.00 0.27 0.05 88 1012.9
20260507075547 50 123 0.0 3.5 0.00 0.27 0.05 89 1012.6
20260507074544 50 143 0.9 3.5 0.00 0.27 0.05 90 1012.5
20260507073541 50 148 1.7 5.2 0.00 0.27 0.05 90 1012.5
20260507072537 50 192 1.7 3.5 0.00 0.27 0.05 90 1012.2
20260507071534 49 171 0.9 3.5 0.00 0.27 0.05 93 1012.3
20260507070530 49 144 1.7 3.5 0.00 0.27 0.05 92 1012.3
20260507065527 49 144 1.7 5.2 0.00 0.27 0.05 91 1012.2
20260507064523 49 154 0.9 5.2 0.00 0.27 0.05 92 1012.2
20260507063520 48 158 0.9 3.5 0.01 0.27 0.05 94 1012.1
20260507062516 48 158 1.7 6.1 0.01 0.27 0.05 94 1012.1
20260507061613 48 158 0.9 3.5 0.02 0.27 0.05 94 1012.0
20260507060610 49 158 0.9 3.5 0.02 0.27 0.05 94 1011.8
20260507055607 48 158 0.0 0.0 0.02 0.27 0.05 96 1011.6
20260507054603 48 158 0.0 1.7 0.02 0.27 0.05 95 1011.5
20260507053600 48 158 0.9 3.5 0.01 0.26 0.04 95 1011.4
20260507052556 48 158 0.9 3.5 0.01 0.26 0.04 95 1011.3
20260507051553 49 154 0.9 3.5 0.00 0.25 0.02 95 1011.3
20260507050550 49 135 0.0 0.0 0.00 0.25 0.02 95 1011.2
20260507045546 49 135 0.0 0.0 0.00 0.25 0.02 95 1011.2
20260507044543 49 135 0.0 1.7 0.01 0.25 0.02 95 1011.1
20260507043539 49 135 0.0 1.7 0.01 0.25 0.02 95 1010.9
20260507042536 49 113 0.0 1.7 0.01 0.25 0.02 95 1010.9
20260507041532 49 158 0.0 0.0 0.01 0.25 0.02 96 1010.8
20260507040529 49 158 0.0 1.7 0.01 0.25 0.02 96 1010.8
20260507035526 49 146 0.0 3.5 0.01 0.25 0.02 95 1010.7
20260507034522 49 180 0.0 1.7 0.00 0.24 0.01 96 1010.6
20260507033519 49 158 0.0 1.7 0.00 0.24 0.01 95 1010.7
20260507032515 49 158 0.9 1.7 0.00 0.24 0.01 95 1010.6
20260507031612 49 158 0.0 1.7 0.00 0.24 0.01 95 1010.7
20260507030609 49 103 0.9 1.7 0.00 0.24 0.01 95 1010.6
20260507025605 49 158 0.9 3.5 0.00 0.24 0.01 96 1010.7
20260507024602 49 113 0.0 1.7 0.00 0.24 0.01 96 1010.5
20260507023559 49 150 0.9 3.5 0.00 0.24 0.01 96 1010.4
20260507022555 49 135 0.0 3.5 0.00 0.24 0.01 96 1010.4
20260507021552 49 148 0.9 3.5 0.00 0.24 0.01 96 1010.3
20260507020549 49 135 0.0 1.7 0.00 0.24 0.01 95 1010.3
20260507015545 49 148 0.9 3.5 0.00 0.24 0.01 95 1010.2
20260507014541 49 143 0.9 3.5 0.00 0.24 0.01 94 1010.1
20260507013538 49 158 0.9 5.2 0.01 0.24 0.01 95 1010.1
20260507012535 50 135 0.0 1.7 0.01 0.24 0.01 95 1010.0
20260507011531 50 139 0.9 3.5 0.01 0.24 0.01 94 1009.8
20260507010528 50 180 0.0 1.7 0.01 0.24 0.01 95 1009.9
20260507005524 50 169 0.0 1.7 0.01 0.24 0.01 95 1010.1
20260507004521 50 135 0.0 1.7 0.01 0.24 0.01 95 1010.1
20260507003518 50 135 0.0 1.7 0.00 0.22 0.00 95 1010.1
20260507002614 50 147 0.0 3.5 0.00 0.22 0.00 95 1010.1
20260507001611 50 124 0.0 1.7 0.00 0.22 0.00 95 1010.2
20260507000608 50 158 0.0 0.0 0.00 0.22 0.00 95 1010.2
20260506235604 50 158 0.0 1.7 0.00 0.22 0.00 94 1010.1
20260506234601 50 154 0.9 3.5 0.00 0.22 0.00 94 1009.9
20260506233557 50 158 0.0 1.7 0.00 0.22 0.00 93 1009.9
20260506232554 50 158 0.9 3.5 0.00 0.22 0.00 94 1009.9
20260506231550 49 158 0.0 3.5 0.00 0.22 0.00 94 1009.9
20260506230547 49 158 0.0 0.0 0.00 0.22 0.00 96 1009.9
20260506225543 49 158 0.0 0.0 0.00 0.22 0.00 97 1009.7
20260506224540 49 158 0.0 0.0 0.01 0.22 0.00 97 1009.6